Stündliche Wetter Holytsya

Heute, 15 Juni, Dienstag

Zeit Temperatur Niederschläge Wind Luftdruck Luftfeuchtigkeit
00:00 +14°C° 0 mm 6 m/S 755 mmHg 84%
01:00 +14°C° 0 mm 5 m/S 754 mmHg 85%
02:00 +14°C° 0 mm 5 m/S 754 mmHg 86%
03:00 +14°C° 0 mm 5 m/S 754 mmHg 87%
04:00 +14°C° 0 mm 5 m/S 754 mmHg 89%
05:00 +14°C° 0 mm 5 m/S 754 mmHg 90%
06:00 +15°C° 0.2 mm 5 m/S 754 mmHg 88%
07:00 +16°C° 0.2 mm 6 m/S 754 mmHg 86%
08:00 +17°C° 0.2 mm 6 m/S 754 mmHg 83%
09:00 +19°C° 0.6 mm 5 m/S 754 mmHg 81%
10:00 +20°C° 0.6 mm 5 m/S 753 mmHg 78%
11:00 +21°C° 0.6 mm 4 m/S 753 mmHg 75%
12:00 +22°C° 0.7 mm 4 m/S 753 mmHg 70%
13:00 +23°C° 0.7 mm 4 m/S 752 mmHg 65%
14:00 +25°C° 0.7 mm 4 m/S 752 mmHg 60%
15:00 +22°C° 4.1 mm 4 m/S 752 mmHg 70%
16:00 +20°C° 4.1 mm 4 m/S 752 mmHg 81%
17:00 +18°C° 4.1 mm 4 m/S 751 mmHg 91%
18:00 +18°C° 0.8 mm 4 m/S 752 mmHg 91%
19:00 +17°C° 0.8 mm 5 m/S 752 mmHg 91%
20:00 +16°C° 0.8 mm 5 m/S 752 mmHg 92%
21:00 +16°C° 0.2 mm 5 m/S 752 mmHg 91%
22:00 +16°C° 0.2 mm 5 m/S 752 mmHg 91%
23:00 +17°C° 0.2 mm 4 m/S 752 mmHg 91%

Morgen, 16 Juni, Mittwoch

Zeit Temperatur Niederschläge Wind Luftdruck Luftfeuchtigkeit
00:00 +17°C° 0.1 mm 4 m/S 752 mmHg 91%
01:00 +17°C° 0.1 mm 3 m/S 752 mmHg 91%
02:00 +17°C° 0.1 mm 3 m/S 752 mmHg 92%
03:00 +17°C° 0.1 mm 3 m/S 752 mmHg 92%
04:00 +17°C° 0.1 mm 3 m/S 752 mmHg 92%
05:00 +17°C° 0.1 mm 3 m/S 752 mmHg 93%
06:00 +18°C° 0.2 mm 3 m/S 752 mmHg 91%
07:00 +18°C° 0.2 mm 3 m/S 752 mmHg 90%
08:00 +18°C° 0.2 mm 3 m/S 753 mmHg 89%
09:00 +19°C° 0.4 mm 3 m/S 753 mmHg 84%
10:00 +20°C° 0.4 mm 4 m/S 753 mmHg 78%
11:00 +21°C° 0.4 mm 4 m/S 753 mmHg 73%
12:00 +22°C° 0.6 mm 3 m/S 753 mmHg 67%
13:00 +24°C° 0.6 mm 3 m/S 753 mmHg 62%
14:00 +25°C° 0.6 mm 2 m/S 753 mmHg 56%
15:00 +25°C° 0.7 mm 2 m/S 753 mmHg 58%
16:00 +24°C° 0.7 mm 3 m/S 753 mmHg 59%
17:00 +24°C° 0.7 mm 3 m/S 754 mmHg 61%
18:00 +22°C° 0.2 mm 3 m/S 754 mmHg 67%
19:00 +20°C° 0.2 mm 2 m/S 754 mmHg 73%
20:00 +19°C° 0.2 mm 2 m/S 755 mmHg 79%
21:00 +20°C° 0 mm 1 m/S 755 mmHg 81%
22:00 +19°C° 0 mm 1 m/S 755 mmHg 82%
23:00 +17°C° 0 mm 0 m/S 755 mmHg 83%

übermorgen, 17 Juni, Donnerstag

Zeit Temperatur Niederschläge Wind Luftdruck Luftfeuchtigkeit
00:00 +18°C° 0 mm 1 m/S 755 mmHg 84%
01:00 +17°C° 0 mm 2 m/S 755 mmHg 85%
02:00 +17°C° 0 mm 3 m/S 755 mmHg 86%
03:00 +17°C° 0 mm 3 m/S 756 mmHg 86%
04:00 +17°C° 0 mm 4 m/S 756 mmHg 85%
05:00 +17°C° 0 mm 4 m/S 756 mmHg 85%
06:00 +18°C° 0.2 mm 4 m/S 756 mmHg 86%
07:00 +19°C° 0.2 mm 5 m/S 756 mmHg 86%
08:00 +19°C° 0.2 mm 6 m/S 756 mmHg 87%
09:00 +18°C° 1 mm 7 m/S 756 mmHg 88%
10:00 +18°C° 1 mm 7 m/S 756 mmHg 89%
11:00 +18°C° 1 mm 8 m/S 755 mmHg 91%
12:00 +18°C° 2.4 mm 8 m/S 755 mmHg 91%
13:00 +20°C° 2.4 mm 8 m/S 755 mmHg 91%
14:00 +20°C° 2.4 mm 7 m/S 755 mmHg 91%
15:00 +21°C° 1.6 mm 7 m/S 755 mmHg 89%
16:00 +22°C° 1.6 mm 6 m/S 755 mmHg 86%
17:00 +23°C° 1.6 mm 5 m/S 755 mmHg 83%
18:00 +22°C° 0.6 mm 5 m/S 755 mmHg 85%
19:00 +22°C° 0.6 mm 4 m/S 755 mmHg 87%
20:00 +21°C° 0.6 mm 4 m/S 756 mmHg 89%
21:00 +21°C° 0.1 mm 4 m/S 756 mmHg 91%
22:00 +20°C° 0.1 mm 4 m/S 756 mmHg 92%
23:00 +20°C° 0.1 mm 4 m/S 756 mmHg 93%

18 Juni, Freitag

Zeit Temperatur Niederschläge Wind Luftdruck Luftfeuchtigkeit
00:00 +20°C° 0 mm 5 m/S 756 mmHg 92%
01:00 +19°C° 0 mm 6 m/S 756 mmHg 92%
02:00 +18°C° 0 mm 7 m/S 756 mmHg 91%
03:00 +18°C° 0 mm 7 m/S 756 mmHg 90%
04:00 +18°C° 0 mm 7 m/S 756 mmHg 89%
05:00 +18°C° 0 mm 7 m/S 756 mmHg 88%
06:00 +18°C° 0.1 mm 8 m/S 756 mmHg 88%
07:00 +18°C° 0.1 mm 8 m/S 756 mmHg 88%
08:00 +19°C° 0.1 mm 9 m/S 756 mmHg 88%
09:00 +19°C° 0.2 mm 9 m/S 756 mmHg 86%
10:00 +21°C° 0.2 mm 9 m/S 756 mmHg 85%
11:00 +22°C° 0.2 mm 10 m/S 756 mmHg 83%
12:00 +22°C° 0.5 mm 9 m/S 756 mmHg 81%
13:00 +23°C° 0.5 mm 9 m/S 756 mmHg 79%
14:00 +23°C° 0.5 mm 9 m/S 756 mmHg 77%
15:00 +23°C° 0.7 mm 8 m/S 756 mmHg 79%
16:00 +22°C° 0.7 mm 8 m/S 756 mmHg 82%
17:00 +22°C° 0.7 mm 7 m/S 756 mmHg 84%
18:00 +21°C° 0.3 mm 7 m/S 757 mmHg 86%
19:00 +21°C° 0.3 mm 7 m/S 757 mmHg 88%
20:00 +20°C° 0.3 mm 6 m/S 757 mmHg 90%
21:00 +20°C° 0.1 mm 6 m/S 758 mmHg 91%
22:00 +19°C° 0.1 mm 5 m/S 758 mmHg 92%
23:00 +19°C° 0.1 mm 4 m/S 759 mmHg 93%

19 Juni, Samstag

Zeit Temperatur Niederschläge Wind Luftdruck Luftfeuchtigkeit
00:00 +19°C° 0 mm 4 m/S 759 mmHg 93%
01:00 +19°C° 0 mm 4 m/S 759 mmHg 92%
02:00 +19°C° 0 mm 4 m/S 759 mmHg 92%
03:00 +18°C° 0 mm 4 m/S 759 mmHg 92%
04:00 +18°C° 0 mm 4 m/S 759 mmHg 92%
05:00 +18°C° 0 mm 4 m/S 759 mmHg 92%
06:00 +20°C° 0 mm 4 m/S 760 mmHg 86%
07:00 +21°C° 0 mm 4 m/S 760 mmHg 81%
08:00 +23°C° 0 mm 5 m/S 760 mmHg 75%
09:00 +25°C° 0.2 mm 5 m/S 760 mmHg 70%
10:00 +26°C° 0.2 mm 5 m/S 759 mmHg 66%
11:00 +27°C° 0.2 mm 6 m/S 759 mmHg 62%
12:00 +27°C° 0.5 mm 6 m/S 759 mmHg 63%
13:00 +27°C° 0.5 mm 6 m/S 759 mmHg 64%
14:00 +26°C° 0.5 mm 6 m/S 759 mmHg 65%
15:00 +27°C° 0.1 mm 5 m/S 759 mmHg 63%
16:00 +27°C° 0.1 mm 5 m/S 759 mmHg 61%
17:00 +27°C° 0.1 mm 4 m/S 759 mmHg 59%
18:00 +26°C° 0 mm 4 m/S 759 mmHg 63%
19:00 +25°C° 0 mm 3 m/S 759 mmHg 68%
20:00 +24°C° 0 mm 3 m/S 759 mmHg 72%
21:00 +24°C° 0 mm 3 m/S 759 mmHg 74%
22:00 +22°C° 0 mm 3 m/S 759 mmHg 75%
23:00 +22°C° 0 mm 3 m/S 759 mmHg 76%

20 Juni, Sonntag

Zeit Temperatur Niederschläge Wind Luftdruck Luftfeuchtigkeit
00:00 +21°C° 0 mm 3 m/S 759 mmHg 78%
01:00 +21°C° 0 mm 3 m/S 759 mmHg 80%
02:00 +21°C° 0 mm 3 m/S 759 mmHg 81%
03:00 +20°C° 0 mm 4 m/S 759 mmHg 82%
04:00 +20°C° 0 mm 4 m/S 759 mmHg 82%
05:00 +19°C° 0 mm 4 m/S 759 mmHg 83%
06:00 +20°C° 0 mm 5 m/S 759 mmHg 79%
07:00 +21°C° 0 mm 5 m/S 759 mmHg 75%
08:00 +22°C° 0 mm 6 m/S 759 mmHg 72%
09:00 +24°C° 0 mm 6 m/S 759 mmHg 64%
10:00 +27°C° 0 mm 7 m/S 759 mmHg 56%
11:00 +28°C° 0 mm 7 m/S 758 mmHg 49%
12:00 +28°C° 0 mm 7 m/S 758 mmHg 48%
13:00 +29°C° 0 mm 7 m/S 758 mmHg 47%
14:00 +29°C° 0 mm 7 m/S 758 mmHg 47%
15:00 +29°C° 0 mm 6 m/S 758 mmHg 48%
16:00 +29°C° 0 mm 6 m/S 757 mmHg 49%
17:00 +29°C° 0 mm 5 m/S 757 mmHg 50%
18:00 +27°C° 0 mm 5 m/S 757 mmHg 56%
19:00 +25°C° 0 mm 4 m/S 758 mmHg 61%
20:00 +24°C° 0 mm 3 m/S 758 mmHg 66%
21:00 +22°C° 0 mm 3 m/S 758 mmHg 69%
22:00 +21°C° 0 mm 3 m/S 758 mmHg 72%
23:00 +20°C° 0 mm 3 m/S 758 mmHg 74%
Mehr zeigen

Wir brauchen deine Erlaubnis

Meteoprog und unser Service Anbieter werden persönliche Daten aufbewahren, so wie Cookies, Geräte Bezeichnung oder ähnliche Technologien von deinem Gerät und Prozess, so wie Persönliche Daten Inhalte und Werbungen, genauso wie social Media und den Verkehr zu analysieren.

  • Aufbewahrung und/oder Zugang zu deiner Geräte Informationen.

    Cookies, Geräte Bezeichnung oder andere Informationen, können aufbewahrt oder Zugang zu deinem Gerät erhalten, für den Grund, der oben angegeben wird.

  • Personalisierte Werbung und Inhalte, Messungen, Einblick in das Publikum und Produkt Entwicklung.

    Werbungen und Inhalte können personalisiert werden, basierend auf ein Profil. Mehr Daten können besser personalisierte Werbungen und Inhalte hinzufügen. Werbung und Inhalte können gezeigt und gemessen werden. Einblicke über das Publikum, welche die Werbung gesehen haben und den Inhalt, können abgeleitet werden. So wie Daten können genutzt werden, um es zu verbessern oder die Benutzer Erfahrung zu verbessern das System und die Software.

Wenn du “Ich stimme zu” klickst, erlaubst du uns, die Cookies zu benutzen die Geräte Bezeichnung, den Web oder ähnliche Technologien zu benutzen. Deine Settings, können in deinem Gerät bei deinem Browser geändert werden.

Für den bestimmten Zweck, berechtigten Interessen beruhen darauf, mehr als auf den Inhalt. Du kannst mehr darüber in unseren Privaten und Cookie Politik lesen.